Temp
14 14 13 13 13 13 13 12 12 12 12 7 6 6 6 7 5 6 5 5 6 6 6 6 6 6 6 5 4 4 4 4 4 4 4 5 5 6
14 13 13 13 12 12 12 11 11 11 11 6 5 5 6 5 5 4 5 4 5 5 5 5 5 4 4 3 3 3 3 3 3 3 4 4 4 5
14 13 13 12 11 11 10 10 9 9 8 4 4 4 4 3 3 3 4 3 3 4 4 3 3 2 2 2 2 2 2 2 2 2 3 3 3 4
12 10 10 10 10 9 8 8 8 8 7 5 3 2 2 3 2 2 2 2 2 2 2 2 1 1 1 2 2 1 1 1 1 1 1 2 2 2
9 9 9 8 8 7 6 7 6 7 6 6 3 1 1 1 2 1 1 2 2 2 2 2 2 2 1 1 1 1 1 0 0 -0 0 0 1 1
8 7 7 6 6 6 6 5 5 4 4 4 4 3 2 0 1 2 2 1 2 1 1 1 1 1 1 1 1 1 1 1 0 -0 -0 0 0 1
5 6 6 5 5 5 5 3 4 4 4 3 3 3 2 2 3 2 2 2 1 -0 0 1 0 0 0 0 1 1 1 0 -0 -1 -1 -0 0 0
4 3 3 3 3 3 4 4 3 3 2 3 2 3 3 2 1 1 1 1 3 -1 -1 1 -0 0 0 -0 -1 0 0 -0 -1 -1 -1 -1 -1 -1
3 2 2 1 1 1 0 1 2 2 2 2 2 2 2 1 0 -1 -1 -1 -0 -0 -2 0 -0 0 0 -1 -0 1 1 -0 -1 -2 -2 -2 -2 -1
2 1 1 1 1 1 0 1 -0 -0 -0 0 0 -0 -1 -1 -2 -2 -2 -2 -2 -2 -3 -1 -0 -0 -0 -1 -1 -1 -2 -2 -2 -3 -3 -2 -2 -2
0 -0 0 -0 1 1 0 -0 -1 -2 -1 -1 -1 -1 -2 -2 -2 -3 -2 -2 -0 -1 -3 -2 -1 -2 -1 -2 -2 -2 -2 -2 -2 -2 -2 -2 -2 -3
-1 -0 -1 -1 -0 -0 -1 -1 -1 -1 -2 -3 -3 -3 -3 -3 -3 -3 -4 -3 -2 -1 -3 -3 -3 -3 -2 -2 -2 -2 -2 -2 -2 -1 -2 -2 -2 -3
-1 -1 -1 -2 -2 -1 -1 -2 -2 -3 -3 -3 -3 -3 -3 -4 -4 -4 -5 -5 -4 -3 -4 -5 -5 -5 -4 -3 -3 -3 -3 -3 -2 -3 -3 -3 -2 -3
-1 -1 -1 -2 -2 -2 -2 -2 -3 -3 -3 -3 -3 -3 -3 -4 -5 -5 -5 -5 -6 -6 -6 -6 -6 -5 -5 -5 -3 -3 -3 -3 -4 -4 -3 -3 -3 -4
-1 -1 -1 -2 -2 -3 -2 -3 -3 -3 -3 -4 -3 -4 -4 -5 -5 -6 -6 -6 -6 -6 -7 -7 -6 -6 -6 -6 -5 -5 -5 -4 -4 -5 -4 -4 -4 -4
-1 -2 -2 -2 -2 -3 -3 -3 -4 -3 -3 -3 -4 -4 -5 -6 -6 -6 -6 -6 -6 -6 -6 -6 -6 -7 -7 -6 -6 -6 -5 -5 -4 -5 -5 -5 -5 -4
-2 -3 -3 -3 -3 -3 -3 -4 -4 -4 -4 -4 -5 -5 -5 -5 -6 -6 -6 -6 -6 -6 -6 -6 -6 -7 -7 -7 -7 -6 -5 -5 -5 -5 -5 -5 -5 -4
-2 -2 -2 -2 -2 -2 -3 -3 -4 -4 -4 -5 -5 -5 -5 -5 -5 -6 -6 -6 -6 -6 -6 -6 -7 -7 -6 -5 -5 -5 -5 -4 -5 -5 -5 -5 -5 -4
-2 -1 -2 -2 -2 -3 -3 -4 -4 -4 -5 -5 -5 -5 -5 -5 -5 -5 -6 -6 -6 -6 -6 -6 -7 -7 -6 -5 -4 -5 -6 -5 -5 -5 -5 -5 -5 -5
-1 -2 -2 -2 -3 -3 -4 -4 -4 -5 -5 -6 -6 -6 -6 -6 -6 -6 -6 -6 -6 -6 -6 -6 -6 -7 -7 -6 -6 -6 -6 -7 -6 -6 -6 -5 -5 -5
-2 -2 -2 -2 -2 -2 -2 -3 -3 -4 -5 -6 -6 -7 -6 -6 -6 -6 -6 -6 -6 -6 -6 -5 -6 -7 -8 -8 -8 -7 -6 -6 -6 -7 -7 -6 -6 -5
-2 -2 -2 -1 -1 -2 -2 -2 -3 -4 -5 -6 -6 -6 -7 -7 -7 -7 -7 -6 -6 -6 -7 -7 -7 -8 -8 -8 -8 -8 -7 -6 -6 -6 -6 -6 -6 -5
-2 -1 -1 -0 -1 -1 -2 -2 -3 -3 -4 -4 -5 -6 -7 -8 -8 -7 -7 -7 -8 -8 -8 -8 -8 -8 -8 -8 -8 -8 -7 -7 -6 -6 -6 -6 -5 -5
Height
818 820 822 823 824 826 828 831 833 834 834 837 839 839 837 837 840 841 841 842 842 845 846 846 847 847 848 850 850 850 850 850 850 850 851 851 850 850
814 815 816 819 821 823 825 827 829 831 831 834 837 837 836 836 840 840 840 841 842 843 844 844 845 846 846 847 848 848 848 848 848 848 849 848 848 847
808 810 813 815 817 820 823 822 825 827 828 833 834 835 835 837 839 840 839 839 840 841 842 842 843 844 845 844 844 844 845 845 845 846 846 846 845 845
805 807 809 813 815 818 821 822 822 824 826 830 833 834 834 835 837 838 838 838 839 840 840 841 842 842 841 841 841 842 842 842 843 842 843 843 842 842
803 807 807 812 814 816 820 820 821 822 824 827 829 831 832 834 837 837 838 836 837 837 839 839 840 839 839 838 838 838 839 839 839 839 839 838 838 839
803 806 807 811 813 816 817 818 820 822 824 826 829 831 832 832 836 835 836 835 836 837 837 837 837 836 835 835 835 835 835 836 836 836 836 836 836 836
804 804 806 810 814 816 816 816 817 820 823 824 827 831 831 832 833 834 835 835 836 836 836 835 835 834 833 832 832 832 832 833 833 833 832 833 832 832
804 805 807 810 813 816 817 816 818 820 822 824 827 828 830 830 832 833 834 835 835 834 835 834 832 832 831 831 830 829 829 829 829 830 830 829 828 828
806 807 809 811 813 817 818 818 818 820 820 824 825 828 829 829 831 833 834 834 835 835 834 832 831 830 829 828 827 826 824 824 825 826 826 826 826 824
807 810 811 812 814 815 819 820 821 821 822 823 825 827 828 828 830 832 832 833 833 833 832 832 830 829 828 827 824 823 822 822 823 823 823 822 821 819
810 812 813 814 814 817 819 820 820 821 822 823 825 826 827 828 831 831 831 832 831 832 832 832 830 829 826 825 824 822 821 821 821 820 819 818 815 813
811 813 814 814 815 818 819 819 820 821 822 824 825 826 827 828 829 829 830 830 831 831 833 833 831 830 826 824 823 822 821 819 817 815 815 812 810 809
812 814 815 816 817 817 817 818 819 820 822 824 825 826 827 828 828 828 828 829 831 831 832 832 831 830 829 826 822 820 819 816 815 812 809 808 806 805
811 813 814 815 816 816 817 816 819 820 822 823 824 825 826 826 827 827 827 828 829 829 829 829 829 829 828 826 821 818 816 814 812 809 806 804 803 802
810 811 813 814 815 815 815 817 819 820 821 822 823 824 824 825 824 825 825 825 825 825 825 825 825 825 825 823 819 816 814 809 807 805 803 801 799 797
809 811 813 814 814 814 815 816 818 819 819 820 821 821 822 822 823 823 824 823 823 822 821 820 821 820 819 819 817 812 811 810 804 802 798 795 792 791
808 810 811 812 812 813 814 815 815 815 816 817 817 818 820 820 821 821 821 821 821 819 819 819 817 816 815 813 811 807 803 801 799 796 794 789 786 785
806 807 808 808 810 811 811 811 812 812 813 814 814 816 816 817 818 817 817 818 817 816 816 815 814 813 810 806 803 799 799 797 795 793 791 787 779 778
803 803 803 805 806 805 806 807 808 809 809 810 811 812 813 813 814 814 814 814 813 813 811 811 810 809 806 801 800 798 795 793 791 789 786 783 777 771
798 799 800 800 800 800 801 802 803 804 805 806 807 808 809 810 810 810 809 809 808 808 806 806 805 804 803 800 797 792 792 789 787 783 779 775 771 766
793 794 794 794 795 796 796 797 798 799 800 802 803 803 804 804 804 804 804 804 804 803 801 799 799 798 796 795 790 784 783 782 780 776 773 770 765 760
786 787 788 788 789 790 790 791 792 793 794 795 796 797 797 798 798 798 798 798 797 797 796 794 793 792 790 789 784 780 776 774 772 769 767 765 762 754
778 779 780 781 782 783 784 785 785 786 787 788 789 789 790 791 792 792 792 791 791 792 791 790 789 787 784 783 779 775 772 768 764 760 757 755 752 748
Wind_Speed
19 17 16 13 14 13 13 14 6 2 4 4 3 3 3 2 3 2 5 9 10 12 12 13 13 13 13 12 11 9 8 8 8 9 9 9 9 10
22 19 20 17 15 13 12 11 13 9 2 4 6 5 3 2 4 3 4 6 7 8 9 11 12 12 10 10 8 6 6 7 8 9 10 10 10 11
21 20 18 15 14 12 11 12 11 10 5 5 6 5 3 3 2 2 4 4 6 9 9 8 8 7 6 4 5 6 7 8 10 9 9 8 9 9
17 15 15 14 12 12 11 9 9 10 6 7 6 5 4 4 3 2 1 2 2 3 4 4 5 7 7 8 9 9 9 9 8 8 8 8 9 9
12 11 11 12 11 10 8 8 8 8 6 6 6 5 3 4 4 3 3 2 2 4 7 9 9 11 10 11 12 12 10 10 9 9 8 8 8 9
9 10 10 10 9 10 10 9 7 6 6 6 5 6 5 4 5 3 3 1 1 5 8 11 11 12 13 14 13 11 11 10 9 8 8 8 10 11
10 10 10 10 11 11 10 9 9 7 7 7 6 5 5 6 5 3 2 2 4 5 7 6 6 7 8 10 11 10 9 9 9 10 10 10 10 10
14 13 12 12 11 9 9 10 9 7 7 6 5 6 5 4 4 3 2 3 3 4 4 6 7 6 6 6 10 11 12 13 13 12 8 9 11 12
15 16 14 14 12 11 11 10 8 7 7 4 5 4 5 4 5 4 3 3 4 4 5 6 5 6 6 7 13 16 18 16 10 7 8 10 11 12
14 12 13 13 11 10 8 7 7 5 4 4 4 4 3 4 3 3 3 3 5 4 2 4 4 7 7 9 12 7 2 4 9 9 10 11 14 18
12 11 10 9 10 9 8 7 6 6 4 4 4 4 4 4 5 3 3 3 3 3 2 3 3 8 8 7 6 7 7 8 11 14 16 17 20 16
10 11 10 9 9 8 5 5 5 4 4 3 2 2 3 3 5 4 4 3 2 3 2 3 5 5 5 4 5 7 8 11 15 13 16 22 18 16
11 9 8 8 6 5 5 3 3 5 5 4 3 3 4 5 3 3 2 2 3 5 1 2 4 5 4 7 9 9 11 11 11 15 14 14 9 9
10 9 8 8 5 4 3 2 3 5 4 3 4 5 5 5 4 3 3 5 6 9 10 8 5 4 7 10 10 6 11 14 15 14 13 11 15 17
9 9 9 7 6 4 3 4 6 5 4 5 5 5 5 5 6 5 7 7 8 10 12 11 11 11 12 11 14 16 15 10 20 16 11 15 17 16
9 8 8 7 6 5 5 5 6 6 6 6 6 5 5 5 5 6 6 6 8 9 9 9 10 12 13 15 16 22 17 13 15 21 21 20 18 17
11 8 6 6 7 7 7 8 7 7 8 7 7 7 7 7 8 7 8 8 10 10 9 8 8 12 14 16 18 22 22 20 19 20 17 21 21 18
10 9 9 8 9 10 9 8 9 9 9 9 8 8 8 8 9 9 10 11 11 11 11 9 9 10 11 15 19 23 17 16 17 16 17 20 28 20
12 10 10 11 11 10 10 10 10 10 11 10 10 11 10 10 10 10 10 10 12 12 12 10 9 9 10 8 13 16 20 19 18 20 21 21 25 28
17 13 14 12 12 12 12 12 11 11 12 12 11 12 11 11 10 11 11 11 12 12 13 11 12 12 14 14 16 22 23 24 22 23 24 22 24 28
21 20 18 15 15 15 15 15 15 14 14 14 13 13 12 12 13 13 13 14 13 13 16 16 13 12 16 16 17 22 21 18 22 25 25 24 25 25
21 24 22 21 21 20 18 17 17 17 17 16 16 15 14 13 14 14 14 13 13 14 16 17 15 14 14 16 20 22 23 21 20 22 25 26 26 10
26 28 27 27 25 25 23 22 21 20 19 19 18 17 16 16 15 14 14 14 13 13 14 16 15 14 18 18 21 22 23 25 23 23 22 20 23 29
Wind_Direction
236 225 219 215 220 226 230 230 213 223 231 216 204 245 223 195 163 173 168 197 209 221 228 237 251 269 278 281 281 283 297 301 302 304 299 296 296 295
240 223 219 223 217 216 218 219 230 231 195 187 213 223 205 187 183 149 208 195 215 227 240 255 265 272 269 271 277 286 294 301 301 298 297 296 296 295
230 214 210 208 207 218 215 207 210 214 166 194 205 207 183 181 232 229 223 220 247 252 259 263 259 259 262 261 259 276 287 291 295 295 293 295 295 293
211 198 195 201 202 207 202 203 196 195 173 166 185 197 200 209 209 187 200 186 172 229 232 229 228 231 241 257 270 281 289 287 285 290 291 286 290 292
197 198 194 195 187 190 189 180 178 181 183 170 156 176 179 171 175 164 191 214 253 261 259 261 258 260 266 270 274 278 275 277 281 285 289 290 293 296
182 180 176 179 184 182 177 171 164 150 148 138 137 157 168 174 182 197 204 207 260 281 278 272 270 270 269 269 271 264 270 265 268 278 288 291 287 286
167 163 165 175 178 179 172 161 150 143 145 144 147 169 171 169 193 191 213 265 271 276 282 279 274 275 276 274 259 261 254 258 268 278 279 282 286 282
157 147 142 142 141 144 149 146 143 144 142 147 160 183 176 175 177 194 213 259 268 274 303 285 274 271 265 252 248 248 256 262 267 278 274 276 281 283
157 151 145 137 124 124 111 117 122 139 145 141 161 180 180 180 185 183 212 225 249 274 308 282 257 266 267 267 270 273 276 267 249 232 278 286 289 289
151 156 147 146 148 142 140 130 113 104 108 115 124 148 142 159 175 193 208 241 265 264 273 272 272 283 274 283 285 271 292 197 205 257 290 294 295 291
149 145 143 146 152 159 158 148 134 115 116 133 141 160 173 186 183 187 217 235 243 225 269 280 297 305 289 276 262 248 200 219 254 281 288 300 301 294
140 146 142 143 157 158 152 155 150 164 179 171 178 215 184 192 193 207 217 210 240 258 229 308 314 337 314 271 260 249 264 289 286 282 287 297 292 291
155 155 155 153 156 162 146 137 157 162 168 172 190 195 183 191 183 176 190 208 233 247 272 320 293 310 279 298 293 273 278 287 286 294 296 296 290 292
166 168 168 172 172 166 148 152 160 163 175 192 201 203 199 197 199 197 226 249 251 248 252 268 261 267 289 295 283 290 292 291 289 290 293 283 291 291
180 183 183 181 189 188 196 186 183 199 210 212 214 207 204 208 217 262 281 275 268 267 260 256 253 260 260 256 274 288 309 297 287 282 286 289 291 288
179 172 181 192 197 216 213 198 208 218 223 226 215 205 200 208 236 247 262 269 279 281 266 251 253 253 260 262 267 278 283 279 286 290 290 289 285 280
177 182 191 200 203 213 220 220 221 220 221 218 210 206 216 228 242 244 256 266 267 274 274 260 264 264 264 269 271 269 274 276 277 287 294 292 288 280
196 205 212 215 220 221 221 223 225 224 225 219 218 219 225 231 244 246 255 261 266 274 277 276 275 283 285 277 268 268 277 279 289 290 293 289 291 290
220 221 222 220 221 220 223 223 227 230 229 226 225 227 230 237 242 250 254 259 269 273 275 276 274 274 282 279 286 263 264 281 288 286 287 284 284 290
223 225 225 223 226 225 229 231 232 233 236 233 232 231 231 236 240 247 252 256 265 271 277 272 266 264 268 282 287 277 271 272 275 282 286 288 284 290
222 227 229 230 236 236 234 237 238 237 235 235 234 233 233 233 240 245 250 253 260 263 270 273 275 275 275 280 274 276 284 283 273 268 278 285 290 293
227 231 237 240 241 242 239 238 238 239 238 238 237 236 236 232 238 242 245 250 253 258 266 276 283 283 275 265 271 282 290 295 286 274 270 266 267 272
233 241 244 247 246 245 242 240 240 241 242 241 239 238 237 234 238 240 245 248 255 262 266 275 278 273 271 270 275 282 286 290 294 295 284 277 269 268